Flag for Ecuador Weather past 2 weeks in Cuenca, Ecuador

Now
59 °F

Passing clouds.


Feels Like: 58 °F
Forecast: 44 / 65 °F
Wind: 7 mph from Northeast

Location: Cuenca / Mariscal Lamar

Current Time: Jun 2, 2015 at 8:54:04 PM

Latest Report: Jun 2, 2015 at 8:00 PM


Visibility: N/A

Pressure: 30.30 "Hg

Humidity: 63%

Dew point: 46 °F

Location of CuencaLocation

Historic Weather in Cuenca — Graph

°F

Cuenca temperature yesterday

Maximum temperature yesterday: 68 °F (at 12:00 PM)
Minimum temperature yesterday: 48 °F (at 6:00 AM)
Average temperature yesterday: 59 °F

Past Weeks' High & Low Weather Summary

 TemperatureHumidityPressure
High86 °F (Jun 2, 6:00 PM)100% (May 23, 6:00 AM)30.42 "Hg (May 23, 6:00 AM)
Low48 °F (May 22, 7:00 AM)25% (Jun 2, 6:00 PM)30.15 "Hg (May 30, 4:00 PM)
Average62 °F69%30.30 "Hg
* Reported May 18 8:00 PM — Jun 2 8:00 PM, Cuenca, Weather by CustomWeather, © 2015

Note: Actual official high and low records may vary slightly from our data, if they occured in-between our weather recording intervals... More about our weather records

Advertising

Cuenca weather history for previous 24 hours

 ConditionsComfort  
Time TempWeatherWind HumidityBarometerVisibility
8:00 PM
Tue, Jun 2
59 °FPassing clouds.7 mph63%30.30 "HgN/A
7:00 PM61 °FPassing clouds.6 mph59%30.27 "HgN/A
6:00 PM86 °FPleasantly warm.N/A25%N/AN/A
5:00 PM64 °FPartly sunny.12 mph56%30.24 "HgN/A
4:00 PM64 °FPartly sunny.15 mph60%30.24 "HgN/A
3:00 PM66 °FPartly sunny.12 mph56%30.24 "HgN/A
2:00 PM68 °FPartly sunny.14 mph49%30.27 "HgN/A
1:00 PM66 °FPartly sunny.16 mph46%30.30 "HgN/A
12:00 PM70 °FPartly sunny.16 mph43%30.33 "HgN/A
11:00 AM68 °FPartly sunny.14 mph46%30.33 "HgN/A
10:00 AM68 °FScattered clouds.12 mph49%30.33 "HgN/A
9:00 AM64 °FPassing clouds.8 mph60%30.33 "HgN/A
8:00 AM57 °FPartly sunny.1 mph72%30.33 "HgN/A
7:00 AM54 °FPartly sunny.3 mph82%30.33 "HgN/A
6:00 AM52 °FPassing clouds.2 mph94%30.30 "HgN/A
9:00 PM
Mon, Jun 1
52 °FPassing clouds.3 mph88%30.33 "HgN/A
8:00 PM55 °FPassing clouds.5 mph82%30.30 "HgN/A
Weather by CustomWeather, © 2015

See weather overviewHow to use our weather pages